[Show "Revision History"] [Show "General Page Infos"] [Show "Page hits and edits"]

Revision History

Showing page edit history entries from 1 to 141 out of 141 entries total.

# Date Size Editor Comment Action
141 2014-04-10 10:07:07 9388 to previous CarstenSchoenert restructure the old meetings list view
140 2014-03-29 19:59:43 9064 to previous ?FrankPiotrowski   view
139 2014-03-29 18:46:22 9077 to previous ?FrankPiotrowski   view
138 2014-03-29 12:01:16 9057 to previous ?FrankPiotrowski   view
137 2014-03-29 11:29:07 9222 to previous ?FrankPiotrowski   view
136 2014-03-29 09:31:46 9184 to previous ?Guido Günther   view
135 2014-03-29 09:14:02 9029 to previous MatthiasSchmitz Add link to kolab3 upstream pacakages view
134 2014-03-29 09:11:12 8934 to previous MatthiasSchmitz Accidently delete some lines view
133 2014-03-29 09:08:55 7179 to previous MatthiasSchmitz   view
132 2014-03-29 09:07:33 8934 to previous ?Guido Günther   view
131 2014-03-24 14:18:43 9110 to previous ?JonathanWiltshire   view
130 2014-03-18 10:48:19 9054 to previous ?OndřejSurý Add Cyrus IMAP to the list since it includes CalDAV and CardDAV support now view
129 2014-02-11 07:09:48 8829 to previous ?Guido Günther Link to next meeting view
128 2013-05-31 18:53:42 8759 to previous Drahtseil some minor touch-ups for improved readability view
127 2013-04-14 09:24:51 8709 to previous ?Guido Günther   view
126 2013-04-14 09:24:12 8709 to previous ?Guido Günther   view
125 2013-04-14 09:18:35 8666 to previous ?Guido Günther   view
124 2013-03-06 23:25:26 8613 to previous JeroenDekkers Add PostgreSQL and MySQL to SOGo entry in Authentication and User Databases view
123 2013-02-27 18:24:13 8575 to previous ?Guido Günther   view
122 2012-06-22 01:41:55 8540 to previous GeoffSimmons Add DefaultTemplate header, formatting. view
121 2012-06-22 01:36:27 8560 to previous GeoffSimmons Update sogo, egroupware, phpgroupware status; InterWiki. view
120 2012-05-23 11:35:59 9290 to previous ?WMartinBorgert Added Radicale calendar and contacts server view
119 2012-03-24 22:48:24 9167 to previous GuidoGünther Update view
118 2012-02-11 13:01:19 8849 to previous GuidoGünther   view
117 2012-02-02 23:10:43 8782 to previous ?WMartinBorgert Add bug number view
116 2011-07-21 04:30:25 8760 to previous ?Lars Kneschke work on official Tine 2.0 packages has started view
115 2011-06-15 10:58:28 8724 to previous ?Lars Kneschke Added link for upstream Tine 2.0 debian packages view
114 2011-04-07 12:10:51 8663 to previous GuidoGünther MoinMoin Syntax view
113 2011-04-07 12:09:54 8662 to previous GuidoGünther Add toc view
112 2011-04-07 12:06:40 8637 to previous GuidoGünther Add mailing list view
111 2011-04-06 08:45:04 8474 to previous GuidoGünther Update sogo status view
110 2011-04-03 14:15:08 8338 to previous GuidoGünther add openchange view
109 2011-04-03 14:06:11 8294 to previous GuidoGünther Add kolabsync to citadel view
108 2011-04-03 08:23:04 8212 to previous GuidoGünther Update view
107 2011-01-22 13:42:13 8342 to previous GuidoGünther add planned 4th meeting view
106 2010-11-01 22:28:47 8323 to previous GuidoGünther fix typo view
105 2010-07-29 15:21:41 8321 to previous ?VincentVanDyck eGroupware has notes view
104 2010-06-01 02:10:36 8318 to previous JamesAndrewartha sogo rfp, upstream packages view
103 2010-05-11 06:40:52 8268 to previous ?Lars Kneschke updated features of Tine 2.0 view
102 2010-05-11 06:39:18 8215 to previous ?Lars Kneschke tine is Tine 2.0 and Tine 2.0 is not a fork of eGroupWare view
101 2010-04-26 15:33:03 8231 to previous ?KenBloom SyncEvolution is in unstable and testing now. view
100 2010-04-10 12:42:54 8328 to previous noel list non-free groupwares view
99 2010-04-10 11:59:19 8190 to previous noel added Zimbra to list of groupwares view
98 2010-04-10 11:52:42 7996 to previous noel sorted OBM correctly in the tables and set this Meeting into the past.;), zarafa link to upstream Debian packages, no ITPs for tine and zarafa view
97 2010-04-10 11:42:28 7837 to previous noel openchange is in sid and might go into squeeze; updated ogo and sogo open-xchange infos view
96 2010-04-10 10:34:37 7873 to previous noel OBM link view
95 2010-04-10 10:32:43 7833 to previous noel sorted obm, nobody is packaging mod_caldav view
94 2010-04-10 10:27:57 7803 to previous noel kolab is available in etch and later (included in squeeze again) view
93 2010-04-10 10:25:03 7866 to previous noel use DebianBug: instead of external link view
92 2010-04-10 10:21:31 7882 to previous noel Group Office has an installation instruction for Debian/Ubuntu view
91 2010-04-10 10:15:09 7771 to previous noel Chandler status, no debs but an (older?) description to build it view
90 2010-04-10 10:07:43 7751 to previous noel updated status of Bedework and BongoProject view
89 2010-04-07 13:13:36 7720 to previous GeoffSimmons Amend eGroupware status. view
88 2010-01-12 13:26:09 7596 to previous GuidoGünther fix link view
87 2010-01-12 13:24:28 7596 to previous GuidoGünther a 2010 groupware meeting view
86 2009-04-29 09:38:15 7521 to previous ?sylvaingarcia   view
85 2009-04-18 09:43:12 7097 to previous noel added wikipedia links for the protocols view
84 2009-04-18 09:39:10 6975 to previous noel kde and caldav view
83 2009-04-18 09:15:14 6938 to previous noel zideone is a beta GroupDAV Outlook connector view
82 2009-04-18 09:03:25 6923 to previous noel for Outlook the Open Outlook Connector supports CalDAV but its alpha software and proprietary - see http://wiki.davical.org/w/CalDAV_Clients/Outlook view
81 2009-04-18 08:46:11 6849 to previous noel protocols and webinterfaces;) view
80 2009-04-18 08:29:25 6841 to previous noel syncevolution has a GUI so removed commandline tool; ITP of syncevolution view
79 2009-04-17 21:42:00 6819 to previous noel AGPL3 can go into main, see http://bugs.debian.org/cgi-bin/bugreport.cgi?msg=17;bug=495721 view
78 2009-04-17 21:32:29 7031 to previous noel like openchange, group office is AGPL3 and not DFSG free view
77 2009-04-17 21:16:15 6930 to previous noel added Group Office view
76 2009-04-17 21:02:07 6837 to previous noel added tine/tine2.0 view
75 2009-04-17 20:34:47 6755 to previous noel added openchange view
74 2009-04-17 20:24:13 6608 to previous noel updated status of the different groupwares view
73 2009-03-16 03:30:33 6539 to previous anonymous converted to 1.6 markup view
72 2009-03-11 16:44:47 6462 to previous ?MathieuParent   view
71 2009-03-03 22:10:46 6435 to previous noel added second groupware meeting view
70 2008-11-11 21:54:07 6336 to previous ?FlorianSchlichting davical packaged; link to lightning vs caldav-server comparison chart view
69 2008-09-26 11:54:34 6264 to previous MichaelMeskes   view
68 2008-09-25 21:14:25 6297 to previous ?TristanHill   view
67 2008-09-25 21:10:08 6220 to previous ?TristanHill   view
66 2008-04-27 13:33:45 6131 to previous ?Carsten Wolff   view
65 2008-04-27 09:42:38 5950 to previous GuidoGünther add NSS view
64 2008-04-27 09:21:26 5877 to previous noel more no replacements view
63 2008-04-27 09:19:38 5872 to previous noel replace no with icon view
62 2008-04-27 09:00:21 5865 to previous noel what does SOGo stand for view
61 2008-04-26 17:04:05 5841 to previous ?PeterEisentraut   view
60 2008-04-26 15:45:38 5610 to previous GuidoGünther works with cs 1.2 and evo 2.12.3-1.1 view
59 2008-04-26 15:22:42 5668 to previous ?PeterEisentraut   view
58 2008-04-26 14:29:33 5651 to previous ?Carsten Wolff   view
57 2008-04-26 14:19:45 5596 to previous ?Carsten Wolff   view
56 2008-04-26 08:30:47 5313 to previous ?PeterEisentraut   view
55 2008-04-26 08:22:43 5294 to previous ?PeterEisentraut   view
54 2008-04-26 01:25:31 4818 to previous ?PeterEisentraut   view
53 2008-04-26 01:07:05 4470 to previous ?PeterEisentraut   view
52 2008-04-26 01:03:24 4352 to previous ?PeterEisentraut   view
51 2008-04-25 22:24:36 4394 to previous ?PeterEisentraut   view
50 2008-04-25 22:18:07 4374 to previous noel BongoProject is in experimental view
49 2008-04-25 22:14:31 4317 to previous noel Bongo Project was Hula view
48 2008-04-25 21:50:55 4306 to previous ?PeterEisentraut   view
47 2008-04-25 21:44:11 4306 to previous ?PeterEisentraut definition of groupware view
46 2008-04-25 21:32:17 4054 to previous ?PeterEisentraut horde compatibility view
45 2008-04-25 21:23:13 3924 to previous ?PeterEisentraut kolab compatibility view
44 2008-04-25 21:19:50 3846 to previous ?PeterEisentraut egroupware compatibility view
43 2008-04-25 21:14:29 3787 to previous ?PeterEisentraut compatibility view
42 2008-04-25 21:01:10 3808 to previous ?PeterEisentraut   view
41 2008-04-25 20:58:48 3838 to previous ?PeterEisentraut   view
40 2008-04-25 20:57:34 3832 to previous ?PeterEisentraut   view
39 2008-04-25 20:47:30 4026 to previous ?PeterEisentraut horde view
38 2008-04-25 20:26:13 3935 to previous ?PeterEisentraut calendarserver view
37 2008-04-25 20:15:21 3965 to previous noel calendarserver is in sid view
36 2008-04-25 20:12:29 3974 to previous noel   view
35 2008-04-25 20:02:25 3975 to previous ?PeterEisentraut CalDAV protocol view
34 2008-04-08 13:15:10 3965 to previous ?Carsten Wolff   view
33 2008-04-06 12:53:50 3922 to previous ?Carsten Wolff   view
32 2008-04-06 12:48:28 3826 to previous ?Carsten Wolff   view
31 2008-04-06 12:38:04 3768 to previous ?Carsten Wolff   view
30 2008-03-23 11:52:41 3453 to previous noel   view
29 2008-03-23 11:38:22 3665 to previous noel remove citadel ITP view
28 2008-03-23 11:37:08 3700 to previous noel phpgroupware and citadel are in sid view
27 2008-03-17 15:51:00 3789 to previous ?Carsten Wolff   view
26 2008-03-17 15:20:02 3712 to previous ?Carsten Wolff   view
25 2008-03-17 13:16:59 3533 to previous ?Carsten Wolff   view
24 2008-03-16 20:07:35 3025 to previous ?Carsten Wolff   view
23 2008-03-16 19:20:25 2916 to previous ?Carsten Wolff   view
22 2008-03-15 12:08:28 2652 to previous ?Carsten Wolff   view
21 2008-03-15 11:29:48 1855 to previous ?Carsten Wolff   view
20 2008-03-10 15:17:22 1596 to previous ?PeterEisentraut various updates view
19 2008-03-09 15:22:18 1524 to previous noel found opengroupware RoM view
18 2008-03-09 15:04:51 1435 to previous noel added groupware meeting link view
17 2008-03-09 14:25:27 1357 to previous noel citadel pkg-citadel hinzugefügt view
16 2008-02-25 12:35:47 1290 to previous noel new ITP of phpgroupware added view
15 2008-02-25 11:53:08 1254 to previous noel correcting last entry view
14 2008-02-25 11:51:48 1251 to previous noel added citadel view
13 2008-02-25 09:38:45 1096 to previous ?PeterEisentraut   view
12 2008-02-24 20:45:10 1077 to previous noel added Apple Calendar Server view
11 2008-02-22 15:20:59 892 to previous ?PeterEisentraut revised groupware overview view
10 2008-02-22 15:05:45 280 to previous ?PeterEisentraut   view
9 2008-02-16 12:14:29 244 to previous ?BjoernBoschman   view
8 2004-12-30 07:50:01 206 to previous anonymous   view
7 2004-12-30 05:09:54 16571 to previous anonymous   view
6 2004-10-28 07:42:57 206 to previous anonymous   view
5 2004-10-28 06:40:52 6654 to previous anonymous   view
4 2004-10-27 14:18:56 181 to previous anonymous   view
3 2004-10-25 22:21:36 201 to previous anonymous   view
2 2004-10-25 22:20:24 133 to previous anonymous   view
1 2004-10-25 22:19:44 129 anonymous   view